Regional Weather Roundup
Issued by NWS Lake Charles, LA

Home | Current Version | Previous Version | Text Only | Print | Product List | Glossary On
Versions: 1 2 3 4 5 6 7 8 9 10 11 12 13 14 15 16 17 18 19 20 21 22 23 24 25 26 27 28
000
ASUS44 KLCH 251610
RWRLCH
REGIONAL WEATHER ROUNDUP
NATIONAL WEATHER SERVICE LAKE CHARLES LA
1100 AM CDT SAT MAR 25 2017

Note: "fair" indicates few or no clouds below 12,000 feet with no
significant weather and/or obstructions to visibility.


ACROSS SOUTHEAST TEXAS

CITY           SKY/WX    TMP DP  RH WIND       PRES   REMARKS
BEAUMONT       LGT RAIN  59  56  89 S13G20    30.04S
BEAUMONT CITY  FAIR     N/A N/A N/A W5        30.03R THUNDER
ORANGE         CLOUDY    64  61  91 SW13      30.05R
JASPER           N/A     67  57  70 CALM      30.05R
$$

ACROSS CENTRAL LOUISIANA

CITY           SKY/WX    TMP DP  RH WIND       PRES   REMARKS
LEESVILLE      PTSUNNY   66  61  83 SW9       30.01R
FULLERTON      FAIR      69  61  75 VRB5      29.99R
ALEXANDRIA INT LGT RAIN  69  63  81 SW12      29.98R
ESLER FIELD    CLOUDY    71  66  84 SW9       29.99S
DERIDDER       FAIR      66  60  79 SW6       30.04S
OAKDALE        PTSUNNY   65  55  69 S8G16     30.01S
OPELOUSAS      FAIR      67  56  68 MISG      30.04R
$$

ACROSS SOUTHWEST AND SOUTH CENTRAL LOUISIANA

CITY           SKY/WX    TMP DP  RH WIND       PRES   REMARKS
SULPHUR        LGT RAIN  68  55  64 S18G25    30.03S
LAKE CHARLES   TSTM      65  62  90 S10       30.06F
CHENNAULT INT  CLOUDY    63  59  88 S12G22    30.05F
CAMERON PHI    SUNNY     64  63  94 E6        30.06S FOG
DEQUINCY       FAIR      62  58  87 CALM      30.02F
JENNINGS       CLOUDY    62  58  85 CALM      30.07F
LAFAYETTE      CLOUDY    72  57  59 NW17G29   30.05R
NEW IBERIA     TSTM      66  57  72 SW17G29   30.05R
ABBEVILLE      TSTM      61  61 100 W20G31    30.09R
PATTERSON      PTSUNNY   77  68  73 S16       30.05F
SALT POINT       N/A     74  69  85 VRB5      30.04F
$$

SELECTED SITES ACROSS THE REGION

CITY           SKY/WX    TMP DP  RH WIND       PRES   REMARKS
HOUSTON BUSH   MOSUNNY   71  52  50 NW10      30.04S
HOUSTON HOBBY  MOSUNNY   73  50  44 NW9       30.02S
GALVESTON      CLOUDY    78  71  79 SW21G26   30.02S HAZE
COLLEGE STAT   SUNNY     66  48  52 NW12      30.07R
CONROE         SUNNY     68  51  54 NW8       30.04F
HUNTSVILLE     SUNNY     66  46  48 W7        30.05S
LUFKIN         SUNNY     66  51  58 W7        30.02F
SHREVEPORT     MOSUNNY   68  50  52 W12       29.99R
MONROE         CLOUDY    66  60  81 SW13      29.98S
NATCHEZ MS     PTSUNNY   72  63  73 S15G22    30.01F
BATON ROUGE    HVY RAIN  67  61  81 SW14G24   30.08R
N.O. INTL ARPT PTSUNNY   76  66  71 S17G25    30.08F
SLIDELL        LGT RAIN  74  69  85 S15G22    30.08F
$$

MARINE REPORTS

STATION/POSITION TIME  SKY/WX   TEMP    WIND        PRES    VSBY
                                AIR SEA DIR/SP/G
                 (UTC)          (F)     (DEG/KT/KT) (MB)    (MI)
BUOY 30 S HIGH I 1550            72 71  220/ 14/ 16 1016.6F
WVE H/P(F/S)=  5/ 8

SEA RIM ST PARK  1600            60     360/ 10/ 12 1018.3R
PORT ARTHUR      1548               70  220/ 17/ 25 1017.0F
SABINE PASS N    1548            62 73  320/ 12/ 20 1020.5R
TEXAS POINT      NOT AVBL
CALCASIEU PASS   1548            64 72  110/  5/  6   N/A
LK CHARLES BEACH 1548            67 70              1017.2F
MARSH ISLAND     1500            74                   N/A
FRESH WATER LOCK 1548            65 73  290/ 17/ 24 1019.0R
AMERADA PASS     1548            74 61  160/  8/ 13 1017.7F
$$




USA.gov is the U.S. government's official web portal to all federal, state and local government web resources and services.